Location: Unspecified
(0.0000°N, 0.0000°E)
Time: 09:47:29
(UTC+00:00)

CZ-3C DEB - Pass Details

Date: 09 March 2026
Orbit: 509 x 34331 km, 19.9° (Epoch: 18 April)

Event Time Altitude Azimuth Distance (km) Brightness Sun altitude
Rises 00:48:57 0° 251° (WSW) 15,542 ? -79.4°
Reaches altitude 10° 01:03:05 10° 248° (WSW) 17,698 ? -76.1°
Maximum altitude 02:40:44 28° 245° (WSW) 30,578 ? -52.2°
Drops below altitude 10° 06:18:57 10° 256° (WSW) 37,417 ? 2.1°
Sets 08:26:46 0° 264° (W) 26,249 ? 33.9°
